Cortez, CO

8:13 AM MST on December 17, 2017 (GMT -0700)
Cortez Municipal

Weather History for KCEZ - September, 2014

Change the Weather History Date:

Wednesday, September 10, 2014

  Actual Average Record
Temperature  
Mean Temperature 61 °F 62 °F  
Max Temperature 75 °F 80 °F 89 °F (2015)
Min Temperature 47 °F 45 °F 32 °F (2001)
Degree Days  
Heating Degree Days 4 3  
Month to date heating degree days 16 23  
Since 1 July heating degree days 26 35  
Cooling Degree Days 0 1  
Month to date cooling degree days 11 13  
Year to date cooling degree days 523 422  
Growing Degree Days 10 (Base 50)    
Moisture  
Dew Point 48 °F    
Average Humidity 62    
Maximum Humidity 100    
Minimum Humidity 23    
Precipitation  
Precipitation 0.00 in 0.06 in 0.50 in (2002)
Month to date precipitation 1.03 0.53  
Year to date precipitation 6.13 8.97  
Sea Level Pressure  
Sea Level Pressure 30.02 in    
Wind  
Wind Speed 6 mph (NNE)    
Max Wind Speed 16 mph    
Max Gust Speed 22 mph    
Visibility 10 miles    
Events      
T = Trace of Precipitation, MM = Missing Value Source: NWS Daily Summary

Daily Weather History Graph

Daily Weather History Graph

Search for Another Location

Airport or City:

Trip Planner

Search our weather history database for the weather conditions in past years. The results will help you decide how hot, cold, wet, or windy it might be!

Date:

Astronomy

Sep. 10, 2014 Rise Set
Actual Time 6:52 AM MDT 7:29 PM MDT
Civil Twilight 6:26 AM MDT 7:55 PM MDT
Nautical Twilight 5:55 AM MDT 8:26 PM MDT
Astronomical Twilight 5:23 AM MDT 8:58 PM MDT
Moon 8:34 PM MDT (9/10) 8:40 AM MDT (9/10)
Length of Visible Light 13h 29m
Length of Day
12h 37m
Waning Gibbous, 96% of the Moon is Illuminated
Sep 10
Waning Gibbous
Sep 15
Last Quarter
Sep 24
New
Oct 1
First Quarter
Oct 8
Full

Hourly Weather History & Observations

Time (MDT) Temp. Dew Point Humidity Pressure Visibility Wind Dir Wind Speed Gust Speed Precip Events Conditions
12:53 AM 52.0 °F 52.0 °F 100% 29.98 in 10.0 mi ENE 4.6 mph - N/A   Scattered Clouds
1:53 AM 53.1 °F 52.0 °F 96% 29.97 in 10.0 mi NNE 5.8 mph - N/A   Overcast
2:46 AM 52.0 °F 51.1 °F 97% 30.12 in 10.0 mi NE 5.8 mph - N/A   Overcast
2:53 AM 53.1 °F 52.0 °F 96% 29.97 in 10.0 mi NE 4.6 mph - N/A   Overcast
3:28 AM 52.0 °F 51.1 °F 97% 30.13 in 10.0 mi NE 5.8 mph - N/A   Scattered Clouds
4:44 AM 50.0 °F 48.9 °F 96% 30.13 in 10.0 mi Calm Calm - N/A   Mostly Cloudy
4:53 AM 50.0 °F 48.9 °F 96% 30.00 in 10.0 mi Calm Calm - N/A   Mostly Cloudy
5:43 AM 48.0 °F 48.0 °F 100% 30.14 in 10.0 mi ESE 4.6 mph - N/A   Scattered Clouds
5:53 AM 48.0 °F 46.9 °F 96% 30.01 in 10.0 mi NNE 3.5 mph - N/A   Partly Cloudy
6:53 AM 46.9 °F 46.0 °F 97% 30.02 in 10.0 mi East 5.8 mph - N/A   Clear
7:53 AM 50.0 °F 48.0 °F 93% 30.04 in 10.0 mi NE 4.6 mph - N/A   Clear
8:53 AM 54.0 °F 50.0 °F 86% 30.04 in 10.0 mi Calm Calm - N/A   Clear
9:53 AM 59.0 °F 51.1 °F 75% 30.05 in 10.0 mi Calm Calm - N/A   Clear
10:53 AM 63.0 °F 52.0 °F 67% 30.04 in 10.0 mi Variable 3.5 mph - N/A   Clear
11:53 AM 68.0 °F 51.1 °F 55% 30.02 in 10.0 mi West 8.1 mph - N/A   Clear
12:53 PM 70.0 °F 50.0 °F 49% 30.01 in 10.0 mi WNW 8.1 mph - N/A   Clear
1:53 PM 72.0 °F 50.0 °F 46% 29.98 in 10.0 mi NW 12.7 mph 18.4 mph N/A   Partly Cloudy
2:53 PM 73.0 °F 46.9 °F 39% 29.98 in 10.0 mi West 10.4 mph - N/A   Partly Cloudy
3:53 PM 73.9 °F 46.9 °F 38% 29.96 in 10.0 mi West 11.5 mph - N/A   Partly Cloudy
4:53 PM 75.0 °F 36.0 °F 24% 29.96 in 10.0 mi NNW 15.0 mph 19.6 mph N/A   Clear
5:53 PM 73.9 °F 41.0 °F 30% 29.96 in 10.0 mi West 11.5 mph - N/A   Clear
6:53 PM 71.1 °F 44.1 °F 38% 29.97 in 10.0 mi WNW 9.2 mph - N/A   Clear
7:53 PM 63.0 °F 46.9 °F 56% 30.00 in 10.0 mi Calm Calm - N/A   Clear
9:53 PM 55.0 °F 46.9 °F 74% 30.05 in 10.0 mi NE 6.9 mph - N/A   Clear
10:53 PM 52.0 °F 46.9 °F 83% 30.04 in 10.0 mi East 3.5 mph - N/A   Clear
11:53 PM 50.0 °F 46.0 °F 86% 30.04 in 10.0 mi ENE 5.8 mph - N/A   Clear